Hourly Weather Allate

Today, 24 November, Tuesday

Time Temperature Precipitation Wind Pressure Humidity
00:00 -5°C° 0 mm 0 mps 639 mmHg 72%
01:00 -4°C° 0 mm 1 mps 639 mmHg 70%
02:00 -4°C° 0 mm 1 mps 639 mmHg 67%
03:00 -4°C° 0 mm 1 mps 639 mmHg 62%
04:00 -4°C° 0 mm 1 mps 639 mmHg 60%
05:00 -4°C° 0 mm 1 mps 639 mmHg 57%
06:00 -4°C° 0 mm 1 mps 638 mmHg 55%
07:00 -2°C° 0 mm 1 mps 639 mmHg 52%
08:00 -1°C° 0 mm 1 mps 639 mmHg 48%
09:00 -1°C° 0 mm 0 mps 640 mmHg 44%
10:00 +1°C° 0 mm 1 mps 640 mmHg 43%
11:00 +2°C° 0 mm 1 mps 639 mmHg 42%
12:00 +3°C° 0 mm 1 mps 639 mmHg 41%
13:00 +3°C° 0 mm 1 mps 639 mmHg 46%
14:00 +3°C° 0 mm 1 mps 638 mmHg 51%
15:00 +3°C° 0 mm 1 mps 637 mmHg 55%
16:00 +2°C° 0 mm 1 mps 637 mmHg 55%
17:00 +1°C° 0 mm 1 mps 636 mmHg 55%
18:00 0°C° 0 mm 1 mps 636 mmHg 55%
19:00 0°C° 0 mm 1 mps 636 mmHg 56%
20:00 0°C° 0 mm 1 mps 635 mmHg 57%
21:00 0°C° 0 mm 1 mps 635 mmHg 57%
22:00 -2°C° 0 mm 0 mps 635 mmHg 60%
23:00 -2°C° 0 mm 0 mps 635 mmHg 62%

Tomorrow, 25 November, Wednesday

Time Temperature Precipitation Wind Pressure Humidity
00:00 -2°C° 0 mm 0 mps 634 mmHg 64%
01:00 -1°C° 0 mm 1 mps 634 mmHg 69%
02:00 -2°C° 0 mm 1 mps 634 mmHg 73%
03:00 -2°C° 0 mm 1 mps 634 mmHg 78%
04:00 -2°C° 0 mm 1 mps 634 mmHg 81%
05:00 -2°C° 0 mm 1 mps 634 mmHg 84%
06:00 -2°C° 0 mm 1 mps 634 mmHg 87%
07:00 -2°C° 0 mm 1 mps 634 mmHg 84%
08:00 -1°C° 0 mm 1 mps 635 mmHg 82%
09:00 -1°C° 0 mm 1 mps 635 mmHg 79%
10:00 0°C° 0 mm 1 mps 635 mmHg 78%
11:00 0°C° 0 mm 1 mps 635 mmHg 77%
12:00 -1°C° 0 mm 2 mps 635 mmHg 76%
13:00 -2°C° 0.1 mm 2 mps 635 mmHg 80%
14:00 0°C° 0.1 mm 1 mps 635 mmHg 83%
15:00 0°C° 0.1 mm 1 mps 635 mmHg 86%
16:00 -1°C° 0.3 mm 1 mps 635 mmHg 89%
17:00 -1°C° 0.3 mm 1 mps 635 mmHg 92%
18:00 -2°C° 0.3 mm 1 mps 635 mmHg 95%
19:00 -2°C° 0.2 mm 1 mps 635 mmHg 94%
20:00 -3°C° 0.2 mm 0 mps 636 mmHg 94%
21:00 -3°C° 0.2 mm 0 mps 636 mmHg 93%
22:00 -4°C° 0 mm 0 mps 636 mmHg 91%
23:00 -4°C° 0 mm 0 mps 635 mmHg 89%

Day after tomorrow, 26 November, Thursday

Time Temperature Precipitation Wind Pressure Humidity
00:00 -4°C° 0 mm 1 mps 635 mmHg 87%
01:00 -4°C° 0 mm 1 mps 635 mmHg 86%
02:00 -4°C° 0 mm 1 mps 635 mmHg 84%
03:00 -4°C° 0 mm 1 mps 635 mmHg 83%
04:00 -5°C° 0 mm 0 mps 635 mmHg 84%
05:00 -5°C° 0 mm 0 mps 635 mmHg 84%
06:00 -5°C° 0 mm 0 mps 635 mmHg 85%
07:00 -5°C° 0 mm 0 mps 636 mmHg 85%
08:00 -4°C° 0 mm 0 mps 636 mmHg 85%
09:00 -2°C° 0 mm 1 mps 636 mmHg 84%
10:00 -2°C° 0.1 mm 1 mps 636 mmHg 83%
11:00 -1°C° 0.1 mm 1 mps 636 mmHg 82%
12:00 -1°C° 0.1 mm 1 mps 636 mmHg 81%
13:00 -1°C° 0.1 mm 1 mps 636 mmHg 83%
14:00 -1°C° 0.1 mm 1 mps 636 mmHg 84%
15:00 -1°C° 0.1 mm 1 mps 636 mmHg 86%
16:00 -2°C° 0.2 mm 1 mps 636 mmHg 89%
17:00 -2°C° 0.2 mm 1 mps 636 mmHg 92%
18:00 -4°C° 0.2 mm 0 mps 637 mmHg 95%
19:00 -4°C° 0.1 mm 0 mps 637 mmHg 95%
20:00 -5°C° 0.1 mm 0 mps 637 mmHg 94%
21:00 -5°C° 0.1 mm 0 mps 637 mmHg 94%
22:00 -5°C° 0 mm 0 mps 637 mmHg 92%
23:00 -6°C° 0 mm 0 mps 637 mmHg 90%

27 November, Friday

Time Temperature Precipitation Wind Pressure Humidity
00:00 -6°C° 0 mm 1 mps 637 mmHg 89%
01:00 -6°C° 0 mm 1 mps 637 mmHg 87%
02:00 -6°C° 0 mm 1 mps 637 mmHg 85%
03:00 -6°C° 0 mm 1 mps 638 mmHg 84%
04:00 -6°C° 0 mm 1 mps 638 mmHg 81%
05:00 -6°C° 0 mm 1 mps 638 mmHg 79%
06:00 -7°C° 0 mm 1 mps 638 mmHg 76%
07:00 -6°C° 0 mm 1 mps 639 mmHg 72%
08:00 -4°C° 0 mm 1 mps 640 mmHg 68%
09:00 -3°C° 0 mm 1 mps 641 mmHg 64%
10:00 -3°C° 0 mm 0 mps 641 mmHg 61%
11:00 -1°C° 0 mm 0 mps 642 mmHg 58%
12:00 0°C° 0 mm 0 mps 642 mmHg 54%
13:00 0°C° 0 mm 0 mps 642 mmHg 58%
14:00 -1°C° 0 mm 0 mps 642 mmHg 62%
15:00 -1°C° 0 mm 0 mps 642 mmHg 66%
16:00 0°C° 0 mm 1 mps 642 mmHg 63%
17:00 -1°C° 0 mm 1 mps 642 mmHg 60%
18:00 -2°C° 0 mm 1 mps 641 mmHg 57%
19:00 -2°C° 0 mm 1 mps 642 mmHg 54%
20:00 -4°C° 0 mm 2 mps 642 mmHg 50%
21:00 -4°C° 0 mm 2 mps 642 mmHg 47%
22:00 -4°C° 0 mm 2 mps 642 mmHg 46%
23:00 -4°C° 0 mm 2 mps 642 mmHg 44%

28 November, Saturday

Time Temperature Precipitation Wind Pressure Humidity
00:00 -4°C° 0 mm 2 mps 642 mmHg 43%
01:00 -4°C° 0 mm 2 mps 641 mmHg 42%
02:00 -3°C° 0 mm 2 mps 641 mmHg 40%
03:00 -3°C° 0 mm 2 mps 641 mmHg 39%
04:00 -3°C° 0 mm 2 mps 640 mmHg 37%
05:00 -3°C° 0 mm 2 mps 640 mmHg 36%
06:00 -3°C° 0 mm 2 mps 640 mmHg 35%
07:00 -2°C° 0 mm 2 mps 640 mmHg 35%
08:00 -1°C° 0 mm 2 mps 641 mmHg 36%
09:00 +2°C° 0 mm 2 mps 641 mmHg 37%
10:00 +4°C° 0 mm 1 mps 641 mmHg 39%
11:00 +5°C° 0 mm 1 mps 641 mmHg 41%
12:00 +5°C° 0 mm 0 mps 641 mmHg 43%
13:00 +5°C° 0 mm 0 mps 641 mmHg 42%
14:00 +4°C° 0 mm 0 mps 640 mmHg 42%
15:00 +4°C° 0 mm 0 mps 640 mmHg 41%
16:00 +4°C° 0 mm 1 mps 639 mmHg 40%
17:00 +3°C° 0 mm 1 mps 639 mmHg 38%
18:00 -1°C° 0 mm 2 mps 639 mmHg 37%
19:00 -1°C° 0 mm 2 mps 639 mmHg 37%
20:00 -1°C° 0 mm 2 mps 639 mmHg 37%
21:00 -1°C° 0 mm 2 mps 639 mmHg 37%
22:00 -1°C° 0 mm 2 mps 639 mmHg 38%
23:00 +1°C° 0 mm 1 mps 638 mmHg 38%

29 November, Sunday

Time Temperature Precipitation Wind Pressure Humidity
00:00 +1°C° 0 mm 1 mps 638 mmHg 39%
01:00 +1°C° 0 mm 1 mps 638 mmHg 40%
02:00 +1°C° 0 mm 1 mps 638 mmHg 41%
03:00 +1°C° 0 mm 1 mps 638 mmHg 41%
04:00 +1°C° 0 mm 1 mps 637 mmHg 42%
05:00 +1°C° 0 mm 1 mps 637 mmHg 43%
06:00 +1°C° 0 mm 1 mps 637 mmHg 44%
07:00 +2°C° 0 mm 1 mps 638 mmHg 45%
08:00 +3°C° 0 mm 1 mps 638 mmHg 46%
09:00 +3°C° 0 mm 1 mps 638 mmHg 47%
10:00 +3°C° 0 mm 0 mps 638 mmHg 48%
11:00 +4°C° 0 mm 0 mps 638 mmHg 49%
12:00 +5°C° 0 mm 0 mps 638 mmHg 49%
13:00 +5°C° 0 mm 0 mps 638 mmHg 50%
14:00 +4°C° 0 mm 0 mps 638 mmHg 51%
15:00 +4°C° 0 mm 0 mps 637 mmHg 52%
16:00 +3°C° 0 mm 0 mps 637 mmHg 50%
17:00 +2°C° 0 mm 0 mps 637 mmHg 48%
18:00 +2°C° 0 mm 0 mps 637 mmHg 46%
19:00 +1°C° 0 mm 0 mps 637 mmHg 45%
20:00 +2°C° 0 mm 1 mps 637 mmHg 44%
21:00 +2°C° 0 mm 1 mps 637 mmHg 44%
22:00 +2°C° 0 mm 1 mps 637 mmHg 44%
23:00 +2°C° 0 mm 1 mps 637 mmHg 44%
Show more